Home > Weather > Bahawalpur > Past weeks

Flag for Pakistan Past Weather in Bahawalpur, Pakistan — Yesterday and Last 2 Weeks

Now
102 °F

Scattered clouds.


Feels Like: 119 °F
Forecast: 96 / 112 °F
Wind: 16 mph from Southwest

Location: Multan Airport

Current Time: Jul 1, 2016 at 8:16:13 PM

Latest Report: Jul 1, 2016 at 6:55 PM


Visibility: 2 mi

Pressure: 29.24 "Hg

Humidity: 45%

Dew Point: 77 °F

Location of BahawalpurLocation

Past Weather in Bahawalpur — Graph

°F

Bahawalpur Temperature Yesterday

Maximum temperature yesterday: 108 °F (at 3:56 PM)
Minimum temperature yesterday: 91 °F (at 5:55 AM)
Average temperature yesterday: 100 °F

High & Low Weather Summary for the Past Weeks

 TemperatureHumidityPressure
High111 °F (Jun 20, 3:55 PM)70% (Jun 28, 3:58 AM)29.62 "Hg (Jun 28, 3:58 AM)
Low84 °F (Jun 28, 3:58 AM)24% (Jun 21, 3:55 PM)29.24 "Hg (Jul 1, 5:55 PM)
Average98 °F48%29.48 "Hg
* Reported Jun 16 6:58 PM — Jul 1 6:55 PM, Bahawalpur, Weather by CustomWeather, © 2016

Note: Actual official high and low records may vary slightly from our data, if they occured in-between our weather recording intervals... More about our weather records

Advertising

Bahawalpur Weather History for the Previous 24 Hours

Scroll right to see more
 ConditionsComfort  
Time TempWeatherWind HumidityBarometerVisibility
6:55 PM
Fri, Jul 1
102 °FScattered clouds.16 mph45%29.24 "Hg2 mi
5:55 PM104 °FPassing clouds.18 mph43%29.24 "Hg3 mi
4:55 PM104 °FClear.18 mph43%29.27 "Hg3 mi
3:55 PM106 °FClear.16 mph40%29.30 "Hg3 mi
2:55 PM106 °FClear.18 mph40%29.33 "Hg3 mi
1:55 PM106 °FClear.16 mph40%29.33 "Hg2 mi
12:53 PM104 °FClear.16 mph45%29.36 "Hg3 mi
11:55 AM104 °FHaze.14 mph45%29.36 "Hg3 mi
10:52 AM100 °FClear.9 mph50%29.36 "Hg3 mi
9:55 AM99 °FClear.14 mph53%29.39 "Hg2 mi
8:54 AM97 °FClear.12 mph56%29.36 "Hg2 mi
7:50 AM93 °FClear.9 mph63%29.36 "Hg2 mi
5:50 AM91 °FClear.9 mph67%29.36 "Hg2 mi
4:55 AM93 °FClear.12 mph59%29.36 "Hg2 mi
3:55 AM93 °FClear.9 mph59%29.36 "Hg2 mi
2:50 AM93 °FClear.7 mph59%29.36 "Hg2 mi
1:50 AM95 °FClear.7 mph56%29.39 "Hg2 mi
11:55 PM
Thu, Jun 30
99 °FClear.5 mph50%29.42 "Hg2 mi
10:55 PM99 °FHaze.7 mph47%29.42 "Hg2 mi
9:55 PM100 °FHaze.7 mph45%29.42 "Hg2 mi
8:55 PM100 °FHaze.5 mph45%29.42 "Hg2 mi
Weather by CustomWeather, © 2016

See weather overviewHow to use our weather pages